AirNav   Everest Fuels
 
 497 users online  

7PS0 B S Corporation Steelton Plant Heliport
Steelton, Pennsylvania, USA

GOING TO STEELTON?


FAA INFORMATION EFFECTIVE 21 MAY 2020

Location

FAA Identifier: 7PS0
Lat/Long: 40-13-50.3250N 076-50-11.9000W
40-13.838750N 076-50.198333W
40.2306458,-76.8366389
(estimated)
Elevation: 300 ft. / 91 m (estimated)
Variation: 10W (1985)
Time zone: UTC -4 (UTC -5 during Standard Time)
Zip code: 17113

Heliport Operations

Heliport use: Private use. Permission required prior to landing
Activation date: 10/1987
Control tower: no
ARTCC: NEW YORK CENTER
FSS: WILLIAMSPORT FLIGHT SERVICE STATION
Attendance: CONTINUOUS
Segmented circle: yes

Heliport Communications

WX ASOS at CXY (1.1 nm SW): PHONE 717-770-0880
WX ASOS at MDT (4 nm SE): 118.8 (717-944-1372)
WX ASOS at MUI (17 nm NE): 124.175 (717-861-2536)
WX ASOS at THV (19 nm S): 119.275 (717-792-5529)

Nearby radio navigation aids

VOR radial/distance  VOR name  Freq  Var
HARr122/11.5HARRISBURG VORTAC112.5010W
RAVr220/22.2RAVINE VORTAC114.6011W
LRPr294/25.9LANCASTER VOR/DME117.3009W
SEGr184/33.7SELINSGROVE VOR/DME110.4008W

 
NDB name  Hdg/Dist  Freq  Var  ID
ENOLA119/3.120411WMD -- -..
LATLE079/8.421911WCX -.-. -..-
BELLGROVE236/17.932810WBZJ -... --.. .---

Heliport Services

Fuel available: MOGAS

Runway Information

Helipad H1

Dimensions: 45 x 45 ft. / 14 x 14 m
Surface: asphalt
Traffic pattern: leftleft

Heliport Ownership and Management from official FAA records

Ownership: Privately-owned
Owner: ARCELORMITTAL STEALTON LLC
215 S. FRONT ST.
STEELTON, PA 17113
Phone 717-986-2453
Manager: STEVEN C. TAYLOR
215 S. FRONT ST.
STEELTON, PA 17113
Phone 717-096-2542

Additional Remarks

FOR CD CTC HARRISBURG APCH AT 800-932-0712.

Instrument Procedures

There are no published instrument procedures at 7PS0.

Some nearby airports with instrument procedures:

KCXY - Capital City Airport (1 nm SW)
KMDT - Harrisburg International Airport (4 nm SE)
58N - Reigle Field Airport (12 nm E)
N71 - Donegal Springs Airpark (15 nm SE)
N94 - Carlisle Airport (16 nm W)
KMUI - Muir Army Airfield (Fort Indiantown Gap) (17 nm NE)
KTHV - York Airport (19 nm S)
 
Loc | Ops | Rwys | IFR | FBO | Links
Com | Nav | Svcs | Stats | Notes
Area around 7PS0 (B S Corporation Steelton Plant Heliport)
 
Road maps at: MapQuest Bing Google
 
Aerial photo
No photo
 
Sectional chart

 
Airport distance calculator
Flying to B S Corporation Steelton Plant Heliport? Find the distance to fly.

From to 7PS0

Sunrise and sunset
Times for 03-Jun-2020
 Local
(UTC-4)
 Zulu
(UTC)
Morning civil twilight05:0709:07
Sunrise05:4009:40
Sunset20:3200:32
Evening civil twilight21:0401:04

Current date and time
Zulu (UTC)  03-Jun-2020 10:46:32
Local (UTC-4)  03-Jun-2020 06:46:32
 
METAR
KCXY 030956Z AUTO 36005KT 10SM CLR 18/16 A2973 RMK AO2 RAE12 SLP066 P0000 T01830156
KMDT 
4nm SE 
030956Z 09004KT 10SM SCT050 BKN120 BKN250 17/16 A2973 RMK AO2 RAE14 SLP065 P0001 T01670156
KMUI 
17nm NE 
030956Z AUTO 00000KT 10SM CLR 17/16 A2972 RMK AO2 SLP065 T01690162
KTHV 
19nm S 
030953Z AUTO 25003KT 10SM CLR 22/13 A2975 RMK AO2 SLP072 T02170128
TAF
KMDT 
4nm SE 
031000Z 0310/0406 28007KT P6SM BKN100 FM031700 28010G20KT 6SM -SHRA VCTS BKN050CB FM032100 29015G20KT P6SM VCTS BKN050CB TEMPO 0321/0401 3SM +TSRA OVC025CB FM040400 30007KT P6SM BKN100
KMUI 
17nm NE 
021900Z 0219/0401 22006KT 9999 BKN060 QNH2994INS BECMG 0220/0221 23010G15KT 9999 BKN040 QNH2977INS BECMG 0305/0306 20006KT 9999 BKN030 WS020/27040KT QNH2969INS BECMG 0314/0315 27015G25KT 9999 BKN030 510032 QNH2967INS BECMG 0317/0318 26015G25KT 9000 -SHRA BKN020 510032 QNH2963INS TEMPO 0318/0323 27020G30KT -TSRA BKN020CB OVC030 BECMG 0323/0324 29009KT 9999 NSW FEW030 SCT200 QNH2970INS TX29/0314Z TN18/0310Z LAST NO AMDS AFT 0305 NEXT 0311
NOTAMs
Click for the latest NOTAMs
NOTAMs are issued by the DoD/FAA and will open in a separate window not controlled by AirNav.

 

 
 

Would you like to see your business listed on this page?

 If your business provides an interesting product or service to pilots, flight crews, aircraft, or users of the B S Corporation Steelton Plant Heliport, you should consider listing it here.  To start the listing process, click on the button below
 
Add a business
 

Other Pages about B S Corporation Steelton Plant Heliport

Update a link
 
Copyright © AirNav, LLC. All rights reserved. Privacy Policy  Contact